Погода в Оленгуе

Россия / Забайкальский край     51°18′23″N   113°24′52″E
темп.,
°C
ветер,
м/с
пор.,
м/с
влажн.,
%
обл.,
%
осадки,
мм/ч
давл.,
гПа
погр.,
м
30 июня, чт
чт3000:00+19зюз11565 0.0 100511
03:00+18юз11600 0.0 100611
06:00+17в11654 0.0 100611
09:00+25вюв24455 0.0 1006407
12:00+31ююв67264 0.0 10042670
15:00+32ю56259 0.0 10023281
18:00+32ююв672894 0.0 10012591
21:00+23зюз485229 0.0 1004215
1 июля, пт
пт100:00+18юв22668 0.0 100516
03:00+16ю227196 0.0 100512
06:00+16ю2271100 0.0 100517
09:00+23ю245095 0.0 1005411
12:00+29ю3636100 0.0 10031168
15:00+32ююв6727100 0.0 10002279
18:00+17сз1294100 2.7 100460
21:00+18зюз239194 3.7 100379
2 июля, сб
сб200:00+17ююз008797 0.6 100211
03:00+16ю2288100 0.6 100312
06:00+15зюз11890 0.0 100311
09:00+21з11695 0.0 1003306
12:00+29с014363 0.0 10011064
15:00+33ссв24277 0.0 9982575
18:00+32вюв643149 0.0 9971863
21:00+26юв4651100 0.0 998161
3 июля, вс
вс300:00+20ю226055 0.0 100027
03:00+19ю116343 0.0 100011
06:00+18юз1169100 0.0 100011
09:00+25в1253100 0.0 999365
12:00+29всв1342100 0.0 9981130
15:00+25зюз4655100 0.0 998454
18:00+25юв5125279 0.5 9961075
21:00+21ю386435 0.6 996330
4 июля, пн
пн400:00+17ююв229364 2.3 99724
03:00+15ююз229611 2.3 99735
06:00+15ю119732 0.0 99818
09:00+17зсз1288100 0.0 998325
12:00+20ссз1173100 0.0 998774
15:00+24з2355100 0.1 9961462
18:00+23зсз445739 0.1 997996
21:00+17зюз2390100 3.1 99858